| time (UTC) | temp F | wind direction | speed MPH | gust MPH | rain 1hr in | rain 24hr in | rain mn in | humidity % | barometer mb |
| 20260507062217 | 40 | 259 | 4.0 | 9.0 | 0.00 | 0.00 | 0.00 | 98 | 1015.3 |
| 20260507061003 | 40 | 310 | 2.0 | 6.0 | 0.00 | 0.00 | 0.00 | 98 | 1015.5 |
| 20260507060221 | 40 | 321 | 2.0 | 5.0 | 0.00 | 0.00 | 0.00 | 98 | 1015.3 |
| 20260507055008 | 40 | 249 | 4.0 | 10.0 | 0.00 | 0.00 | 0.00 | 98 | 1015.1 |
| 20260507054008 | 40 | 309 | 4.0 | 7.0 | 0.00 | 0.00 | 0.00 | 98 | 1015.3 |
| 20260507053004 | 40 | 316 | 4.0 | 9.0 | 0.00 | 0.00 | 0.00 | 98 | 1015.5 |
| 20260507052003 | 40 | 301 | 3.0 | 7.0 | 0.00 | 0.00 | 0.00 | 98 | 1015.3 |
| 20260507051223 | 40 | 287 | 3.0 | 10.0 | 0.00 | 0.00 | 0.00 | 98 | 1015.5 |
| 20260507050003 | 40 | 332 | 5.0 | 11.0 | 0.00 | 0.00 | 0.00 | 98 | 1015.3 |
| 20260507045003 | 40 | 335 | 6.0 | 11.0 | 0.00 | 0.00 | 0.00 | 98 | 1015.1 |
| 20260507044008 | 40 | 327 | 5.0 | 11.0 | 0.00 | 0.00 | 0.00 | 98 | 1015.2 |
| 20260507043008 | 40 | 308 | 4.0 | 7.0 | 0.00 | 0.00 | 0.00 | 98 | 1015.1 |
| 20260507042003 | 40 | 320 | 4.0 | 8.0 | 0.00 | 0.00 | 0.00 | 98 | 1015.1 |
| 20260507041003 | 40 | 307 | 3.0 | 6.0 | 0.00 | 0.00 | 0.00 | 98 | 1015.1 |
| 20260507040222 | 40 | 312 | 4.0 | 6.0 | 0.00 | 0.00 | 0.00 | 98 | 1015.1 |
| 20260507035003 | 40 | 314 | 4.0 | 6.0 | 0.00 | 0.00 | 0.00 | 97 | 1015.3 |
| 20260507034003 | 40 | 318 | 4.0 | 7.0 | 0.00 | 0.00 | 0.00 | 97 | 1015.1 |
| 20260507033216 | 40 | 317 | 4.0 | 7.0 | 0.00 | 0.00 | 0.00 | 97 | 1015.0 |
| 20260507032003 | 40 | 318 | 4.0 | 7.0 | 0.00 | 0.00 | 0.00 | 97 | 1015.1 |
| 20260507031008 | 40 | 316 | 4.0 | 6.0 | 0.00 | 0.00 | 0.00 | 97 | 1015.1 |
| 20260507030218 | 40 | 319 | 4.0 | 7.0 | 0.00 | 0.00 | 0.00 | 97 | 1015.2 |
| 20260507025003 | 40 | 318 | 4.0 | 7.0 | 0.00 | 0.00 | 0.00 | 97 | 1015.3 |
| 20260507024003 | 40 | 318 | 4.0 | 7.0 | 0.00 | 0.00 | 0.00 | 97 | 1015.2 |
| 20260507023008 | 40 | 316 | 4.0 | 6.0 | 0.00 | 0.00 | 0.00 | 97 | 1015.2 |
| 20260507022003 | 40 | 317 | 4.0 | 6.0 | 0.00 | 0.00 | 0.00 | 97 | 1015.0 |
| 20260507021008 | 40 | 315 | 4.0 | 6.0 | 0.00 | 0.00 | 0.00 | 97 | 1015.0 |
| 20260507020218 | 40 | 317 | 4.0 | 7.0 | 0.00 | 0.00 | 0.00 | 97 | 1015.3 |
| 20260507015008 | 39 | 316 | 4.0 | 6.0 | 0.00 | 0.00 | 0.00 | 97 | 1015.5 |
| 20260507014003 | 39 | 317 | 4.0 | 7.0 | 0.00 | 0.00 | 0.00 | 96 | 1015.5 |
| 20260507013008 | 39 | 316 | 4.0 | 7.0 | 0.00 | 0.00 | 0.00 | 96 | 1015.3 |
| 20260507012003 | 39 | 317 | 4.0 | 5.0 | 0.00 | 0.00 | 0.00 | 95 | 1015.6 |
| 20260507010003 | 39 | 313 | 4.0 | 7.0 | 0.00 | 0.00 | 0.00 | 95 | 1015.5 |
| 20260507005003 | 40 | 310 | 4.0 | 8.0 | 0.00 | 0.00 | 0.00 | 94 | 1015.3 |
| 20260507004008 | 40 | 312 | 4.0 | 7.0 | 0.00 | 0.00 | 0.00 | 94 | 1015.5 |
| 20260507003003 | 40 | 308 | 4.0 | 7.0 | 0.00 | 0.00 | 0.00 | 93 | 1015.5 |
| 20260507002008 | 40 | 308 | 4.0 | 6.0 | 0.00 | 0.00 | 0.00 | 93 | 1015.7 |
| 20260507001223 | 40 | 308 | 4.0 | 6.0 | 0.00 | 0.00 | 0.00 | 92 | 1015.6 |
| 20260507000003 | 41 | 312 | 4.0 | 7.0 | 0.00 | 0.00 | 0.00 | 92 | 1015.8 |
| 20260506235008 | 41 | 305 | 4.0 | 7.0 | 0.00 | 0.00 | 0.00 | 92 | 1015.5 |
| 20260506234008 | 41 | 308 | 4.0 | 8.0 | 0.00 | 0.00 | 0.00 | 91 | 1015.7 |
| 20260506233003 | 41 | 313 | 4.0 | 8.0 | 0.00 | 0.01 | 0.00 | 91 | 1015.7 |
| 20260506232008 | 41 | 308 | 4.0 | 7.0 | 0.00 | 0.01 | 0.00 | 90 | 1015.5 |
| 20260506231008 | 41 | 310 | 4.0 | 8.0 | 0.00 | 0.01 | 0.00 | 90 | 1015.6 |
| 20260506230217 | 41 | 314 | 4.0 | 7.0 | 0.00 | 0.01 | 0.00 | 90 | 1015.6 |
| 20260506225008 | 42 | 308 | 4.0 | 7.0 | 0.00 | 0.01 | 0.01 | 89 | 1015.5 |
| 20260506224008 | 42 | 308 | 4.0 | 9.0 | 0.00 | 0.01 | 0.01 | 89 | 1015.7 |
| 20260506223003 | 42 | 312 | 4.0 | 7.0 | 0.00 | 0.01 | 0.01 | 89 | 1015.6 |
| 20260506222008 | 42 | 311 | 4.0 | 7.0 | 0.00 | 0.01 | 0.01 | 89 | 1015.5 |
| 20260506221003 | 42 | 309 | 4.0 | 7.0 | 0.00 | 0.01 | 0.01 | 88 | 1015.7 |
| 20260506220003 | 42 | 312 | 4.0 | 7.0 | 0.00 | 0.01 | 0.01 | 88 | 1015.5 |
| 20260506215222 | 42 | 313 | 4.0 | 7.0 | 0.00 | 0.01 | 0.01 | 88 | 1015.5 |
| 20260506214003 | 41 | 312 | 4.0 | 6.0 | 0.00 | 0.01 | 0.01 | 88 | 1015.5 |
| 20260506213222 | 41 | 311 | 4.0 | 6.0 | 0.00 | 0.01 | 0.01 | 88 | 1015.2 |
| 20260506212008 | 41 | 310 | 4.0 | 5.0 | 0.00 | 0.01 | 0.01 | 87 | 1015.2 |
| 20260506211013 | 42 | 311 | 4.0 | 6.0 | 0.00 | 0.01 | 0.01 | 87 | 1015.0 |
| 20260506210003 | 42 | 312 | 4.0 | 6.0 | 0.00 | 0.01 | 0.01 | 87 | 1015.2 |
| 20260506205218 | 42 | 313 | 4.0 | 5.0 | 0.00 | 0.01 | 0.01 | 86 | 1014.9 |
| 20260506204008 | 42 | 313 | 3.0 | 6.0 | 0.00 | 0.01 | 0.01 | 85 | 1014.9 |
| 20260506203003 | 42 | 312 | 3.0 | 5.0 | 0.00 | 0.01 | 0.01 | 83 | 1014.7 |
| 20260506202222 | 42 | 312 | 3.0 | 6.0 | 0.00 | 0.01 | 0.01 | 82 | 1014.9 |
| 20260506201008 | 43 | 313 | 3.0 | 5.0 | 0.00 | 0.01 | 0.01 | 79 | 1014.8 |
| 20260506200008 | 43 | 314 | 3.0 | 7.0 | 0.00 | 0.01 | 0.01 | 78 | 1014.7 |
| 20260506195221 | 44 | 312 | 3.0 | 5.0 | 0.00 | 0.01 | 0.01 | 76 | 1014.5 |
| 20260506194008 | 45 | 314 | 4.0 | 6.0 | 0.00 | 0.01 | 0.01 | 73 | 1014.4 |
| 20260506193221 | 46 | 315 | 4.0 | 8.0 | 0.00 | 0.01 | 0.01 | 72 | 1014.4 |
| 20260506192008 | 46 | 311 | 4.0 | 7.0 | 0.00 | 0.01 | 0.01 | 71 | 1014.3 |
| 20260506191224 | 47 | 311 | 4.0 | 7.0 | 0.00 | 0.01 | 0.01 | 69 | 1014.3 |
| 20260506190223 | 48 | 311 | 4.0 | 8.0 | 0.00 | 0.01 | 0.01 | 67 | 1014.5 |
| 20260506185013 | 48 | 312 | 4.0 | 6.0 | 0.00 | 0.01 | 0.01 | 68 | 1014.2 |
| 20260506184003 | 48 | 309 | 4.0 | 7.0 | 0.00 | 0.01 | 0.01 | 65 | 1014.2 |
| 20260506183008 | 49 | 308 | 4.0 | 7.0 | 0.00 | 0.01 | 0.01 | 62 | 1014.2 |
| 20260506182008 | 49 | 307 | 4.0 | 8.0 | 0.00 | 0.01 | 0.01 | 59 | 1014.1 |
| 20260506181003 | 50 | 305 | 4.0 | 6.0 | 0.00 | 0.01 | 0.01 | 60 | 1014.3 |
| 20260506180217 | 50 | 307 | 4.0 | 8.0 | 0.00 | 0.01 | 0.01 | 58 | 1014.3 |
| 20260506175003 | 51 | 307 | 4.0 | 7.0 | 0.00 | 0.01 | 0.01 | 58 | 1014.4 |
| 20260506174008 | 51 | 306 | 4.0 | 9.0 | 0.00 | 0.01 | 0.01 | 61 | 1014.3 |
| 20260506173003 | 51 | 304 | 4.0 | 8.0 | 0.00 | 0.01 | 0.01 | 56 | 1014.2 |
| 20260506172008 | 51 | 302 | 4.0 | 9.0 | 0.00 | 0.01 | 0.01 | 57 | 1014.0 |
| 20260506171216 | 51 | 303 | 4.0 | 7.0 | 0.00 | 0.01 | 0.01 | 53 | 1014.0 |
| 20260506170008 | 51 | 303 | 4.0 | 8.0 | 0.00 | 0.01 | 0.01 | 53 | 1013.9 |
| 20260506165003 | 52 | 306 | 5.0 | 10.0 | 0.00 | 0.01 | 0.01 | 54 | 1014.1 |
| 20260506164003 | 52 | 307 | 5.0 | 10.0 | 0.00 | 0.01 | 0.01 | 56 | 1014.1 |
| 20260506163003 | 53 | 300 | 5.0 | 8.0 | 0.00 | 0.01 | 0.01 | 55 | 1014.0 |
| 20260506162008 | 54 | 310 | 5.0 | 9.0 | 0.00 | 0.01 | 0.01 | 52 | 1014.0 |
| 20260506161008 | 56 | 297 | 5.0 | 8.0 | 0.00 | 0.01 | 0.01 | 48 | 1014.0 |
| 20260506160218 | 57 | 298 | 5.0 | 8.0 | 0.00 | 0.01 | 0.01 | 45 | 1013.9 |
| 20260506155003 | 54 | 306 | 4.0 | 7.0 | 0.00 | 0.01 | 0.01 | 57 | 1014.2 |
| 20260506154008 | 53 | 302 | 5.0 | 10.0 | 0.00 | 0.01 | 0.01 | 53 | 1014.1 |
| 20260506153003 | 55 | 302 | 5.0 | 10.0 | 0.00 | 0.01 | 0.01 | 52 | 1014.2 |
| 20260506152008 | 55 | 305 | 5.0 | 8.0 | 0.00 | 0.01 | 0.01 | 50 | 1014.1 |
| 20260506151003 | 53 | 305 | 5.0 | 9.0 | 0.00 | 0.01 | 0.01 | 53 | 1014.3 |
| 20260506150003 | 56 | 299 | 5.0 | 10.0 | 0.00 | 0.01 | 0.01 | 48 | 1014.2 |
| 20260506145003 | 52 | 306 | 6.0 | 12.0 | 0.00 | 0.01 | 0.01 | 56 | 1014.3 |
| 20260506144008 | 56 | 298 | 5.0 | 9.0 | 0.00 | 0.01 | 0.01 | 52 | 1014.1 |
| 20260506143008 | 54 | 307 | 5.0 | 9.0 | 0.00 | 0.01 | 0.01 | 57 | 1014.3 |
| 20260506142003 | 52 | 307 | 5.0 | 9.0 | 0.00 | 0.01 | 0.01 | 53 | 1014.3 |
| 20260506141003 | 53 | 298 | 5.0 | 9.0 | 0.00 | 0.01 | 0.01 | 57 | 1014.4 |
| 20260506140008 | 55 | 306 | 5.0 | 10.0 | 0.00 | 0.01 | 0.01 | 52 | 1014.4 |
| 20260506135223 | 57 | 302 | 6.0 | 10.0 | 0.00 | 0.01 | 0.01 | 51 | 1014.4 |
| 20260506134003 | 51 | 300 | 5.0 | 9.0 | 0.00 | 0.01 | 0.01 | 58 | 1014.6 |
| 20260506133008 | 52 | 304 | 6.0 | 10.0 | 0.00 | 0.01 | 0.01 | 58 | 1014.8 |
| 20260506132217 | 54 | 304 | 6.0 | 12.0 | 0.00 | 0.01 | 0.01 | 52 | 1014.6 |
| 20260506131008 | 55 | 301 | 6.0 | 10.0 | 0.00 | 0.01 | 0.01 | 53 | 1014.5 |
| 20260506130004 | 56 | 307 | 6.0 | 10.0 | 0.00 | 0.01 | 0.01 | 54 | 1014.6 |
| 20260506125003 | 54 | 309 | 6.0 | 11.0 | 0.00 | 0.01 | 0.01 | 62 | 1014.6 |
| 20260506124004 | 54 | 305 | 6.0 | 10.0 | 0.00 | 0.01 | 0.01 | 55 | 1014.7 |
| 20260506123223 | 54 | 311 | 6.0 | 11.0 | 0.00 | 0.01 | 0.01 | 59 | 1014.6 |
| 20260506122223 | 54 | 299 | 5.0 | 10.0 | 0.00 | 0.01 | 0.01 | 61 | 1014.7 |
| 20260506121008 | 53 | 311 | 6.0 | 12.0 | 0.00 | 0.01 | 0.01 | 59 | 1014.7 |
| 20260506120008 | 53 | 303 | 5.0 | 11.0 | 0.00 | 0.01 | 0.01 | 61 | 1014.9 |
| 20260506115003 | 52 | 310 | 5.0 | 10.0 | 0.00 | 0.01 | 0.01 | 68 | 1014.8 |
| 20260506114003 | 53 | 315 | 5.0 | 10.0 | 0.00 | 0.01 | 0.01 | 62 | 1015.0 |
| 20260506113004 | 50 | 308 | 5.0 | 9.0 | 0.00 | 0.01 | 0.01 | 64 | 1015.0 |
| 20260506112003 | 51 | 312 | 5.0 | 9.0 | 0.00 | 0.01 | 0.01 | 64 | 1014.9 |
| 20260506111008 | 50 | 315 | 5.0 | 10.0 | 0.00 | 0.01 | 0.01 | 67 | 1015.0 |
| 20260506110003 | 49 | 311 | 5.0 | 10.0 | 0.00 | 0.01 | 0.01 | 64 | 1014.9 |
| 20260506105003 | 49 | 308 | 5.0 | 9.0 | 0.00 | 0.01 | 0.01 | 69 | 1014.9 |
| 20260506104008 | 48 | 311 | 5.0 | 9.0 | 0.00 | 0.01 | 0.01 | 73 | 1015.2 |
| 20260506103004 | 47 | 311 | 5.0 | 10.0 | 0.00 | 0.01 | 0.01 | 75 | 1015.1 |
| 20260506102008 | 46 | 308 | 6.0 | 11.0 | 0.00 | 0.01 | 0.01 | 75 | 1015.2 |
| 20260506101003 | 45 | 310 | 6.0 | 9.0 | 0.00 | 0.01 | 0.01 | 76 | 1015.1 |
| 20260506100218 | 44 | 309 | 5.0 | 8.0 | 0.00 | 0.01 | 0.01 | 74 | 1015.1 |
| 20260506095003 | 44 | 305 | 5.0 | 8.0 | 0.00 | 0.01 | 0.01 | 74 | 1015.2 |
| 20260506094008 | 44 | 308 | 5.0 | 8.0 | 0.00 | 0.01 | 0.01 | 77 | 1015.0 |
| 20260506093008 | 44 | 307 | 5.0 | 8.0 | 0.00 | 0.01 | 0.01 | 77 | 1015.0 |
| 20260506092217 | 44 | 307 | 4.0 | 8.0 | 0.00 | 0.01 | 0.01 | 77 | 1015.1 |
| 20260506091222 | 44 | 310 | 4.0 | 8.0 | 0.00 | 0.01 | 0.01 | 78 | 1015.1 |
| 20260506090003 | 44 | 312 | 4.0 | 8.0 | 0.00 | 0.01 | 0.01 | 78 | 1015.1 |
| 20260506085004 | 43 | 307 | 5.0 | 9.0 | 0.00 | 0.01 | 0.01 | 77 | 1015.1 |
| 20260506084003 | 43 | 309 | 5.0 | 10.0 | 0.00 | 0.01 | 0.01 | 77 | 1015.0 |
| 20260506083003 | 43 | 309 | 5.0 | 8.0 | 0.00 | 0.01 | 0.01 | 77 | 1014.9 |
| 20260506082003 | 43 | 305 | 5.0 | 10.0 | 0.00 | 0.01 | 0.01 | 77 | 1014.8 |
| 20260506081008 | 43 | 309 | 5.0 | 11.0 | 0.00 | 0.01 | 0.01 | 77 | 1014.8 |
| 20260506073008 | 41 | 308 | 5.0 | 12.0 | 0.00 | 0.01 | 0.01 | 84 | 1015.0 |
| 20260506072008 | 41 | 314 | 4.0 | 11.0 | 0.00 | 0.01 | 0.01 | 87 | 1014.7 |
| 20260506071008 | 41 | 301 | 4.0 | 8.0 | 0.00 | 0.01 | 0.01 | 88 | 1014.8 |
| 20260506070223 | 40 | 307 | 4.0 | 8.0 | 0.00 | 0.01 | 0.01 | 87 | 1014.8 |